Starlink 30965

operational
NORAD ID: 58477 Int'l Des: 2023-186 Owner: SPXS Country: US Constellation: starlink
LEOCIRCULAR

关于 Starlink 30965

正在加载描述...

实时位置

正在加载3D地球...

即将过境

高度历史

Altitude vs Time

uPlot chart will show altitude changes over time

两行轨道根数

1 58477U 23186E 25351.47110374 .00000019 00000-0 16524-4 0 9996
2 58477 43.0038 141.2052 0001817 275.3170 84.7465 15.02537125113637
Epoch: Dec 17, 2025 • Age: 16 hours

当前状态

高度 570.4 km
速度 7.58 km/s
星下点 -41.25°S, 62.53°W
发射日期 Dec 3, 2023
运行时间 2 years
类型 internet

技术详情

分类 Payload
质量 730.00 kg
干质量 700.00 kg
总质量 730.00 kg
长度 0.30 m
直径 4.10 m
跨度 29.00 m
形状 Box + pan
制造商 SPXS
平台类型 Starlink V2M
阶段状态 In Orbit
所有者/国家 SPXS/US

大型星座

Loading constellations...